Rochelle, IL

8:42 PM CDT on October 19, 2017 (GMT -0500)
Rochelle

Weather History for KRPJ - April, 2014

Change the Weather History Date:

Sunday, April 13, 2014

  Actual Average (KRFD) Record (KRFD)
Temperature  
Mean Temperature 58 °F -  
Max Temperature 66 °F 59 °F 83 °F (2006)
Min Temperature 51 °F 37 °F 18 °F (1950)
Degree Days  
Heating Degree Days 6    
Growing Degree Days 8 (Base 50)    
Moisture  
Dew Point 55 °F    
Average Humidity 84    
Maximum Humidity 96    
Minimum Humidity 62    
Precipitation  
Precipitation 0.37 in - - ()
Sea Level Pressure  
Sea Level Pressure 29.62 in    
Wind  
Wind Speed 13 mph (SSE)    
Max Wind Speed 23 mph    
Max Gust Speed 34 mph    
Visibility 8 miles    
Events Rain , Thunderstorm    
Averages and records for this station are not official NWS values.
T = Trace of Precipitation, MM = Missing Value Source: NWS Daily Summary

Daily Weather History Graph

Daily Weather History Graph

Search for Another Location

Airport or City:

Trip Planner

Search our weather history database for the weather conditions in past years. The results will help you decide how hot, cold, wet, or windy it might be!

Date:

Astronomy

Apr. 13, 2014 Rise Set
Actual Time 6:19 AM CDT 7:35 PM CDT
Civil Twilight 5:50 AM CDT 8:04 PM CDT
Nautical Twilight 5:15 AM CDT 8:38 PM CDT
Astronomical Twilight 4:39 AM CDT 9:15 PM CDT
Moon 6:11 PM CDT (4/13) 5:19 AM CDT (4/13)
Length of Visible Light 14h 13m
Length of Day
13h 15m
Waxing Gibbous, 97% of the Moon is Illuminated
Apr 13
Waxing Gibbous
Apr 15
Full
Apr 22
Last Quarter
Apr 29
New
May 6
First Quarter

Hourly Weather History & Observations

Time (CDT) Temp. Dew Point Humidity Pressure Visibility Wind Dir Wind Speed Gust Speed Precip Events Conditions
12:15 AM 63.7 °F 53.8 °F 70% 29.65 in 10.0 mi South 18.4 mph 23.0 mph N/A   Scattered Clouds
12:35 AM 63.3 °F 53.6 °F 71% 29.65 in 10.0 mi South 18.4 mph - N/A   Clear
12:55 AM 63.1 °F 53.6 °F 71% 29.66 in 10.0 mi South 19.6 mph - N/A   Scattered Clouds
1:15 AM 63.7 °F 53.6 °F 70% 29.66 in 10.0 mi South 18.4 mph - N/A   Overcast
1:35 AM 63.5 °F 53.4 °F 70% 29.66 in 10.0 mi South 19.6 mph - N/A   Overcast
1:55 AM 63.1 °F 53.2 °F 70% 29.65 in 10.0 mi South 17.3 mph 23.0 mph N/A   Mostly Cloudy
2:15 AM 63.0 °F 53.1 °F 70% 29.64 in 10.0 mi South 19.6 mph 25.3 mph N/A Thunderstorm Mostly Cloudy
2:35 AM 63.1 °F 53.8 °F 71% 29.67 in 10.0 mi SW 20.7 mph 26.5 mph N/A Rain Light Rain
2:55 AM 64.9 °F 53.8 °F 67% 29.67 in 10.0 mi SW 23.0 mph 34.5 mph N/A Thunderstorm Scattered Clouds
3:15 AM 63.7 °F 53.6 °F 70% 29.67 in 10.0 mi WSW 16.1 mph - N/A   Clear
3:35 AM 62.2 °F 52.7 °F 71% 29.67 in 10.0 mi West 10.4 mph - N/A   Clear
3:55 AM 60.6 °F 52.7 °F 75% 29.69 in 10.0 mi WNW 12.7 mph - N/A   Clear
4:15 AM 58.3 °F 51.8 °F 79% 29.68 in 10.0 mi NW 8.1 mph - N/A   Clear
4:35 AM 57.2 °F 51.3 °F 81% 29.67 in 10.0 mi NNW 5.8 mph - N/A   Clear
5:15 AM 54.9 °F 49.8 °F 83% 29.67 in 10.0 mi East 3.5 mph - N/A   Clear
5:35 AM 52.9 °F 47.7 °F 82% 29.68 in 10.0 mi Calm Calm - N/A   Clear
5:55 AM 51.8 °F 47.8 °F 86% 29.67 in 7.0 mi South 4.6 mph - N/A   Mostly Cloudy
6:15 AM 51.3 °F 48.4 °F 90% 29.69 in 10.0 mi SW 5.8 mph - N/A   Overcast
6:35 AM 52.7 °F 50.2 °F 91% 29.76 in 10.0 mi West 13.8 mph - N/A   Overcast
6:55 AM 52.9 °F 50.4 °F 91% 29.75 in 5.0 mi WNW 6.9 mph - 0.01 in Rain Light Rain
7:15 AM 52.9 °F 50.4 °F 91% 29.74 in 5.0 mi Calm Calm - N/A Rain Light Rain
7:35 AM 53.6 °F 51.3 °F 92% 29.73 in 5.0 mi Calm Calm - N/A   Clear
7:55 AM 54.5 °F 52.2 °F 92% 29.73 in 7.0 mi Calm Calm - N/A   Clear
8:15 AM 55.9 °F 54.0 °F 93% 29.73 in 7.0 mi Calm Calm - N/A   Clear
8:35 AM 58.5 °F 56.5 °F 93% 29.72 in 10.0 mi Calm Calm - N/A   Clear
8:55 AM 59.9 °F 55.8 °F 86% 29.72 in 10.0 mi SSW 5.8 mph - N/A   Clear
9:15 AM 60.8 °F 56.3 °F 85% 29.73 in 10.0 mi South 8.1 mph - N/A   Clear
9:35 AM 62.2 °F 55.2 °F 78% 29.73 in 10.0 mi South 5.8 mph - N/A   Clear
9:55 AM 63.5 °F 54.5 °F 72% 29.70 in 10.0 mi SE 5.8 mph - N/A   Clear
10:15 AM 64.4 °F 53.2 °F 67% 29.71 in 10.0 mi SSE 5.8 mph - N/A   Clear
10:35 AM 65.7 °F 52.5 °F 62% 29.73 in 10.0 mi South 5.8 mph - N/A   Clear
10:55 AM 66.2 °F 53.4 °F 63% 29.74 in 10.0 mi SSW 5.8 mph - N/A   Clear
11:15 AM 65.5 °F 54.3 °F 67% 29.76 in 10.0 mi South 3.5 mph - N/A   Clear
11:35 AM 65.1 °F 55.0 °F 70% 29.74 in 10.0 mi Calm Calm - N/A Rain Light Rain
11:55 AM 65.3 °F 58.5 °F 78% 29.73 in 10.0 mi ESE 3.5 mph - N/A Rain Light Rain
12:15 PM 64.9 °F 58.8 °F 81% 29.72 in 10.0 mi ESE 4.6 mph - N/A Rain Light Rain
12:35 PM 65.3 °F 60.1 °F 83% 29.72 in 10.0 mi East 4.6 mph - N/A   Scattered Clouds
12:55 PM 64.9 °F 57.2 °F 76% 29.72 in 10.0 mi South 10.4 mph - N/A   Scattered Clouds
1:15 PM 64.0 °F 57.6 °F 79% 29.71 in 10.0 mi South 10.4 mph - N/A   Drizzle
1:35 PM 62.2 °F 57.6 °F 85% 29.70 in 10.0 mi South 9.2 mph - N/A   Drizzle
1:55 PM 61.7 °F 57.4 °F 86% 29.69 in 4.0 mi South 8.1 mph - 0.03 in Rain Rain
2:15 PM 61.2 °F 58.3 °F 90% 29.69 in 3.0 mi SSW 5.8 mph - 0.03 in Rain Light Rain
2:35 PM 60.8 °F 58.1 °F 91% 29.65 in 3.0 mi Calm Calm - 0.06 in Rain Light Rain
2:55 PM 61.0 °F 58.6 °F 92% 29.65 in 5.0 mi East 5.8 mph - 0.06 in   Light Drizzle
3:15 PM 61.2 °F 59.0 °F 93% 29.63 in 5.0 mi ESE 9.2 mph - N/A   Light Drizzle
3:35 PM 61.2 °F 59.0 °F 93% 29.64 in 7.0 mi ESE 8.1 mph - N/A   Light Drizzle
3:55 PM 61.2 °F 59.0 °F 93% 29.64 in 5.0 mi SE 12.7 mph - 0.02 in Rain Rain
4:15 PM 60.6 °F 57.9 °F 91% 29.63 in 4.0 mi ESE 17.3 mph 25.3 mph 0.01 in Rain Light Rain
4:35 PM 54.5 °F 51.8 °F 91% 29.60 in 4.0 mi East 17.3 mph - 0.01 in Rain Light Rain
4:55 PM 53.4 °F 51.1 °F 92% 29.58 in 2.0 mi East 19.6 mph - 0.04 in Rain Rain
5:15 PM 53.1 °F 51.3 °F 94% 29.56 in 3.0 mi East 16.1 mph - N/A Rain Light Rain
5:35 PM 53.1 °F 51.6 °F 95% 29.55 in 3.0 mi ESE 13.8 mph 21.9 mph N/A Rain Light Rain
5:55 PM 53.6 °F 51.8 °F 94% 29.55 in 2.5 mi ESE 17.3 mph - 0.08 in Rain Rain
6:15 PM 53.6 °F 51.8 °F 94% 29.51 in 1.8 mi East 20.7 mph - 0.11 in Rain Light Rain
6:35 PM 54.1 °F 52.7 °F 95% 29.50 in 4.0 mi ESE 16.1 mph 21.9 mph 0.12 in   Mostly Cloudy
6:55 PM 54.7 °F 53.2 °F 95% 29.50 in 3.0 mi ESE 12.7 mph - 0.12 in   Overcast
7:15 PM 55.4 °F 53.8 °F 94% 29.51 in 3.0 mi SE 13.8 mph - N/A Rain Rain
7:35 PM 57.2 °F 55.9 °F 96% 29.49 in 4.0 mi SSE 13.8 mph - N/A Rain Light Rain
7:55 PM 58.6 °F 57.4 °F 96% 29.47 in 4.0 mi SE 13.8 mph - N/A   Overcast
8:15 PM 59.7 °F 58.3 °F 95% 29.47 in 5.0 mi South 10.4 mph - N/A   Overcast
8:35 PM 61.0 °F 59.9 °F 96% 29.47 in 10.0 mi South 19.6 mph 25.3 mph N/A Rain Light Rain
8:55 PM 61.7 °F 59.9 °F 94% 29.47 in 10.0 mi South 21.9 mph 28.8 mph N/A Rain Light Rain
9:15 PM 61.9 °F 59.7 °F 93% 29.47 in 7.0 mi South 21.9 mph 31.1 mph N/A Rain Light Rain
9:35 PM 61.7 °F 59.2 °F 91% 29.45 in 7.0 mi South 17.3 mph 24.2 mph 0.01 in Rain Light Rain
9:55 PM 61.7 °F 59.4 °F 92% 29.44 in 10.0 mi South 19.6 mph - 0.01 in   Overcast
10:15 PM 61.9 °F 59.2 °F 91% 29.43 in 10.0 mi South 20.7 mph 25.3 mph N/A Rain Light Rain
10:35 PM 61.9 °F 59.0 °F 90% 29.42 in 10.0 mi South 18.4 mph - N/A   Overcast
10:55 PM 61.9 °F 59.0 °F 90% 29.42 in 10.0 mi South 17.3 mph 21.9 mph N/A   Mostly Cloudy
11:15 PM 61.9 °F 58.6 °F 89% 29.39 in 10.0 mi South 21.9 mph 27.6 mph N/A   Scattered Clouds
11:35 PM 62.1 °F 58.8 °F 89% 29.38 in 10.0 mi SSE 23.0 mph 29.9 mph N/A   Scattered Clouds
11:55 PM 62.2 °F 58.6 °F 88% 29.38 in 10.0 mi South 21.9 mph 26.5 mph N/A   Mostly Cloudy